Espace membre
Imprimable
Houffalize, 07-08/12/2013, BEL - Houffatrail
Liste des rapports > 14km - Classement
Recherche: Page: [1]
64 Entrées
 
Les réclamations ne sont plus acceptées, les résultats sont considérés comme définitifs.
RangNrNomAgeIOCEquipeTempsTkmMoy.ScrLocalité
1.178FCLAEYS Ann SofieBEL1:20:325:46 10.4311
2.350FVERSTRAETEN DebbieBEL1:23:465:59 10.0314
3.257FLOOIJER JoanyBEL1:31:156:32 9.2141
4.213FENGEL AagjeNLD1:32:126:36 9.1144
5.188FDE GREVE GeertruiBEL1:32:476:38 9.0548
6.1043FDEBOCK JulieBEL1:34:456:47 8.8755
7.166FBRAET SarahBEL1:37:116:57 8.6462
8.234FHATERT GenevièveBEL1:40:487:12 8.3373
9.224FGIJBELS FriedaBEL1:41:357:16 8.2780
10.222FGEYTER GretaBEL1:42:507:21 8.1784
11.164FBOSMANS PatriciaBEL1:43:337:24 8.1185
12.162FBOK JenniferNLD1:43:347:24 8.1186
13.281FPONCIN LaurenceBEL1:43:447:25 8.1087
14.331FVAN HELMOND KarlijnNLD1:44:557:30 8.0192
15.156FBARTHÉLEMY ChloéBEL1:45:117:31 7.9995
16.355FVREHEN GuusjeBEL1:48:027:43 7.78100
17.228FGRAUWELS LarissaBEL1:48:067:44 7.77101
18.212FDRUINE PaulineBEL1:49:027:48 7.70103
19.302FVAN DEN WILDENBERG SandraBEL1:50:597:56 7.57108
20.733FVAN DEN EINDEN MaaikeNLD1:50:597:56 7.57109
21.169FBROEDERS MiekeNLD1:51:037:56 7.56110
22.323FVAN BUUL ElkeNLD1:51:337:59 7.53114
23.316FTURLOT ValérieBEL1:52:398:03 7.46119
24.327FVAN DYCK MaryLUX1:53:598:09 7.37123
25.1084FNEY NathalieBEL1:53:598:09 7.37124
26.208FDEWAELE ChristelBEL1:54:058:09 7.36126
27.265FNATHALIE LaurentBEL1:54:078:10 7.36128
28.233FHARSEVOORT - PIEFFERS JennekeNLD1:54:108:10 7.36129
29.173FBULTE KaatBEL1:54:188:10 7.35130
30.289FROBESYN ValerieBEL1:54:478:12 7.32132
31.207FDEVULDER ValerieFRA1:54:528:13 7.31133
32.305FSPIES SabineBEL1:55:148:14 7.29134
33.205FDEPROOST TaschaBEL1:55:438:16 7.26136
34.250FLAVAUX AudreyBEL1:56:128:18 7.23137
35.243FKAMPMAN EllyNLD1:56:318:20 7.21140
36.333FVAN IJKEN EsmeNLD1:56:418:21 7.20141
37.131FDERAUX Cecile42BELEMYR1:56:468:21 7.19142MOLENBEEK-SAINT-JEAN
38.329FVAN GEMERT MarjaNLD1:57:118:23 7.17144
39.351FVERVLIET ValérieBEL1:57:288:24 7.15145
40.268FOKKERS AnneliesNLD1:57:378:25 7.14146
41.242FJANSSEN LouiseNLD1:58:118:27 7.11148
42.227FGOREL BirgitNLD1:58:308:28 7.09149
43.236FHENS SarahBEL2:03:368:50 6.80155
44.170FBRONKHORST KarenNLD2:03:438:51 6.79157
44.191FDE PAUW AnnieNLD2:03:438:51 6.79157
46.199FDEJARDIN FrederiqueBEL2:03:488:51 6.79159
47.261FMEYSSONNIER JulieFRA2:05:088:57 6.71160
48.168FBREDERO QuirineBEL2:09:369:16 6.48163
49.225FGILBERT ElliBEL2:09:389:16 6.48164
50.262FMOLENAAR AnjaNLD2:11:159:23 6.40165
51.165FBOURS MichèleBEL2:12:599:30 6.32167
52.240FISABELLE GaignageBEL2:13:239:32 6.30169
53.277FPETRY CatherineBEL2:13:489:34 6.28170
54.260FMETTEPENNINGEN SanneBEL2:14:269:37 6.25172
55.218FGASPARD CatherineBEL2:22:4910:13 5.88175
56.295FSALOMONS ClaudetteNLD2:23:3610:16 5.85177
57.256FLIBERT SolangeBEL2:23:3710:16 5.85178
58.287FREIN KarinNLD2:23:4410:16 5.84180
59.298FSCHULTING JacquelineNLD2:23:4510:17 5.84181
60.244FKAPTEIJN ArienneNLD2:26:1910:28 5.74182
61.345FVERBRUGGEN AstridNLD2:33:0610:57 5.49183
62.206FDERWORT ClaudiaNLD2:33:1310:57 5.48184
DSQ292FROEMER TjardaNLD
DNF196FDE WOLF JozefienBEL
DNF: abandon; DSQ: disqualifié; Vitesse en km/h
Page: [1]